Terug naar catalogus

STARLINK-6210

ActiefCommunicatieVLEO
NORAD 56485·PAYLOAD·🇺🇸 United States

Gelanceerd May 10, 2023 vanaf Vandenberg Space Force Base

Loading…

Volgende Passages (komende 24 uur)

TLE

VersSource: CelesTrak SupGP

Epoch: Sep 15, 2026, 02:07 UTC

1 56485C 23064AP  26258.08868056  .00357030  00000+0  29867-1 0  2585
2 56485  70.0019   6.7346 0003104 268.0450 100.7880 14.98220710    15

Volg STARLINK-6210 in realtime met AllMySat

Download on the App Store